Regional Weather Roundup
Issued by NWS

Home | Current Version | Previous Version | Text Only | Print | Product List | Glossary Off
Versions: 1 2 3 4 5 6 7 8 9 10 11 12 13 14 15 16 17 18 19 20 21 22 23 24 25 26 27 28 29 30 31 32 33 34 35 36 37 38 39 40 41 42 43 44 45 46 47 48 49 50

098
ASUS43 KFSD 252202
RWRSD

WEATHER ROUNDUP FOR SOUTH DAKOTA
NATIONAL WEATHER SERVICE SIOUX FALLS SD
500 PM CDT WED APR 25 2018

NOTE: "FAIR" INDICATES FEW OR NO CLOUDS BELOW 12,000 FEET WITH NO
SIGNIFICANT WEATHER AND/OR OBSTRUCTIONS TO VISIBILITY.


SDZ001>005-009-010-012>017-252300-
NORTHWEST AND NORTH CENTRAL SOUTH DAKOTA

CITY           SKY/WX    TMP DP  RH WIND       PRES   REMARKS
BUFFALO          N/A     72  23  16 W21       29.83F
FAITH            N/A     68  21  16 S15       29.91F
MOBRIDGE       PTSUNNY   67  31  26 S17       29.90F
$$

SDZ012>016-024>037-041>051-057-063-072>074-252300-
SOUTHWEST AND SOUTH CENTRAL SOUTH DAKOTA

CITY           SKY/WX    TMP DP  RH WIND       PRES   REMARKS
RAPID CTY ARPT SUNNY     75  11   8 W12       29.89F
PIERRE         PTSUNNY   68  24  19 S21       29.96F
CUSTER         SUNNY     60  18  19 VRB7G18   30.02F
ELLSWORTH AFB  MOSUNNY   74  18  12 SW3       29.89F
PHILIP         PTSUNNY   70  25  18 SW13G22   29.94F
PINE RIDGE     MOSUNNY   69  21  16 SW12G18   29.99F
SPEARFISH      FAIR      70  21  16 SW13G21   29.94F
WINNER         FAIR      66  26  22 SW13      30.03F
$$

SDZ004>011-016>023-039-040-252300-
NORTHEAST SOUTH DAKOTA

CITY           SKY/WX    TMP DP  RH WIND       PRES   REMARKS
ABERDEEN       PTSUNNY   66  29  24 S17G24    29.98F
WATERTOWN      SUNNY     58  31  35 SW14      30.03F
BROOKINGS      SUNNY     57  30  35 VRB6      30.05
SISSETON         N/A     63  31  30 SW13      30.00F
$$

SDZ017-020-022-023-036>040-048>070-252300-
SOUTHEAST SOUTH DAKOTA

CITY           SKY/WX    TMP DP  RH WIND       PRES   REMARKS
SIOUX FALLS    MOSUNNY   60  26  27 S3        30.07F
HURON          MOSUNNY   62  33  33 S13       30.02F
CHAMBERLAIN    MOSUNNY   65  33  30 S10G21    30.02F
MITCHELL       SUNNY     61  33  35 SW12      30.05F
YANKTON        SUNNY     59  29  31 CALM      30.09F
$$

ABBREVIATIONS USED IN REMARKS
   TC - TEMPERATURE IN CELSIUS
  WCI - WIND CHILL INDEX
   HX - HEAT INDEX
  VSB - VISIBILITY





USA.gov is the U.S. government's official web portal to all federal, state and local government web resources and services.